Погода в Учкенте

Россия / Республика Дагестан     43°06′48″N   47°04′55″E
темп.,
°C
ветер,
м/с
пор.,
м/с
влажн.,
%
обл.,
%
осадки,
мм/ч
давл.,
гПа
погр.,
м
17 мая, пн
пн1700:00+19ю44360 0.0 100544
03:00+17ююз43301 0.0 100526
06:00+20ююз33406 0.0 100550
09:00+28юв34265 0.0 1004672
12:00+30в44270 0.0 1004842
15:00+29вюв44312 0.0 1002641
18:00+27юв334299 0.0 100152
21:00+21з3461100 0.0 100492
18 мая, вт
вт1800:00+21зсз2259100 0.0 100428
03:00+18з686936 0.0 1005304
06:00+19зсз7127439 0.0 1008831
09:00+20зсз810668 0.3 1009878
12:00+20сз8106323 0.4 1010991
15:00+22сз785457 0.7 10111149
18:00+20сз45604 0.1 1012587
21:00+17зюз22720 0.1 101312
19 мая, ср
ср1900:00+15зюз11730 0.0 101211
03:00+15ююв11770 0.0 101111
06:00+18ююв23680 0.0 1010145
09:00+22вюв45530 0.0 1008865
12:00+25в54431 0.0 10071082
15:00+24с65495 0.1 1010856
18:00+21зсз246269 1.6 1013282
21:00+15сз598778 1.8 1017519
20 мая, чт
чт2000:00+15зсз4680100 0.0 1017323
03:00+16з227289 0.0 101869
06:00+16ссв126169 0.0 1019157
09:00+18св32471 0.0 1019869
12:00+22в55400 0.0 10171497
15:00+21в65424 0.0 10171176
18:00+19вюв46540 0.0 1017519
21:00+15юв34700 0.0 101771
21 мая, пт
пт2100:00+15юв33720 0.0 101645
03:00+15юв34700 0.0 101660
06:00+17юв47620 0.0 1016213
09:00+24вюв66440 0.0 1014649
12:00+27вюв77390 0.0 1013791
15:00+26вюв67400 0.0 1013683
18:00+21вюв57532 0.0 1014342
21:00+17юв45682 0.1 101570